Location: Unspecified
(0.0000°N, 0.0000°E)
Time: 11:52:31
(UTC+00:00)

A-11 Canister half - All Passes

Search period start: 24 May 2016 00:00
Search period end: 03 June 2016 00:00
Orbit: 1527 x 1683 km, 47.3° (Epoch: 22 May)

Date Brightness Start Highest point End Pass type
(mag) Time Alt. Az. Time Alt. Az. Time Alt. Az.
24 May - 04:38:42 10° N 04:46:41 27° NE 04:54:43 10° ESE visible
24 May - 06:41:45 10° NW 06:51:45 68° SW 07:01:51 10° SSE daylight
24 May - 08:53:48 10° WSW 08:57:26 12° SW 09:01:04 10° SSW daylight
24 May - 17:29:38 10° SSW 17:38:47 56° SE 17:47:48 10° NE daylight
24 May - 19:35:49 10° WSW 19:43:35 30° NW 19:51:23 10° N visible
25 May - 04:17:22 10° N 04:25:03 25° NE 04:32:48 10° E visible
25 May - 06:20:07 10° NW 06:30:09 72° SW 06:40:18 10° SSE daylight
25 May - 08:31:17 10° WSW 08:35:45 14° SW 08:40:14 10° SSW daylight
25 May - 17:08:09 10° SSW 17:17:14 52° SE 17:26:09 10° NE daylight
25 May - 19:14:01 10° WSW 19:22:01 32° NW 19:30:00 10° N visible
26 May - 03:56:04 10° N 04:03:25 23° NE 04:10:50 10° E visible
26 May - 05:58:30 10° NW 06:08:33 77° SW 06:18:44 10° SE daylight
26 May - 08:08:57 10° WSW 08:14:05 15° SW 08:19:14 10° SSW daylight
26 May - 16:46:40 10° SSW 16:55:40 48° SE 17:04:29 10° ENE daylight
26 May - 18:52:14 10° WSW 19:00:26 35° NW 19:08:37 10° NNE visible
27 May - 03:34:48 10° N 03:41:47 21° NE 03:48:50 10° E visible
27 May - 05:36:53 10° NW 05:46:57 82° SW 05:57:09 10° SE daylight
27 May - 07:46:43 10° W 07:52:24 16° SW 07:58:08 10° S daylight
27 May - 16:25:12 10° SSW 16:34:06 45° SE 16:42:48 10° ENE daylight
27 May - 18:30:29 10° WSW 18:38:52 37° NW 18:47:14 10° NNE visible
28 May - 03:13:33 10° N 03:20:09 19° NE 03:26:47 10° E visible
28 May - 05:15:18 10° NW 05:25:21 87° SW 05:35:34 10° SE visible
28 May - 07:24:34 10° W 07:30:45 18° SW 07:36:58 10° S daylight
28 May - 16:03:45 10° SSW 16:12:32 42° SE 16:21:06 10° ENE daylight
28 May - 18:08:44 10° WSW 18:17:18 40° NW 18:25:49 10° NNE visible
29 May - 02:52:22 10° N 02:58:30 18° NE 03:04:41 10° E visible
29 May - 04:53:43 10° NW 05:03:45 88° NE 05:13:58 10° SE visible
29 May - 07:02:29 10° W 07:09:04 19° SW 07:15:45 10° S daylight
29 May - 15:42:18 10° SSW 15:50:57 39° SE 15:59:23 10° ENE daylight
29 May - 17:47:00 10° WSW 17:55:44 43° NW 18:04:23 10° NNE daylight
30 May - 02:31:13 10° N 02:36:51 16° NE 02:42:31 10° E visible
30 May - 04:32:09 10° NW 04:42:09 83° NE 04:52:21 10° SE visible
30 May - 06:40:27 10° W 06:47:25 21° SW 06:54:30 10° S daylight
30 May - 15:20:52 10° SSW 15:29:23 36° SE 15:37:39 10° ENE daylight
30 May - 17:25:18 10° WSW 17:34:10 47° NW 17:42:57 10° NNE daylight
31 May - 02:10:10 10° NNE 02:15:12 15° NE 02:20:16 10° ENE visible
31 May - 04:10:36 10° NW 04:20:33 79° NE 04:30:44 10° SE visible
31 May - 06:18:28 10° W 06:25:47 23° SW 06:33:12 10° S daylight
31 May - 14:59:27 10° SSW 15:07:47 34° SE 15:15:55 10° ENE daylight
31 May - 17:03:36 10° WSW 17:12:37 50° NW 17:21:30 10° NNE daylight
01 Jun - 01:49:12 10° NNE 01:53:32 13° NE 01:57:54 10° ENE visible
01 Jun - 03:49:03 10° NNW 03:58:57 74° NE 04:09:05 10° SE visible
01 Jun - 05:56:31 10° W 06:04:08 24° SW 06:11:53 10° S daylight
01 Jun - 14:38:02 10° S 14:46:12 31° SE 14:54:09 10° ENE daylight
01 Jun - 16:41:55 10° SW 16:51:03 54° NW 17:00:02 10° NNE daylight
02 Jun - 01:28:25 10° NNE 01:31:52 12° NE 01:35:22 10° ENE visible
02 Jun - 03:27:31 10° NNW 03:37:21 69° NE 03:47:26 10° SE visible
02 Jun - 05:34:37 10° W 05:42:30 26° SW 05:50:32 10° S visible
02 Jun - 14:16:38 10° S 14:24:36 29° SE 14:32:21 10° ENE daylight
02 Jun - 16:20:15 10° SW 16:29:29 58° NW 16:38:34 10° NNE daylight
